CAPE
0 2 0 0 4 1 0 0 0 0 0 0 0 0 0 0 0 0 0 1 7 19 434 1417 1792 1581 1601 1273 1118 957 730 590 464 359 198 92 13 13 14 19 22 25 24
5 0 6 6 2 0 0 0 2 8 7 7 0 0 0 0 0 0 0 1 11 17 18 1201 1565 1585 1654 1409 1036 894 727 564 416 334 188 72 7 12 12 15 22 26 30
12 13 3 11 5 0 1 4 11 15 21 15 0 0 0 0 0 0 0 0 5 9 7 182 1012 1342 1512 1505 1143 883 722 493 363 307 181 85 25 11 10 6 14 21 6
13 0 0 1 0 0 8 9 6 3 1 1 9 1 0 0 0 0 0 0 9 17 16 18 210 966 1206 1343 1352 1068 907 549 376 297 180 98 48 0 0 0 7 9 4
3 0 1 2 8 13 7 13 11 16 0 5 0 0 0 0 0 0 0 0 3 9 40 5 4 622 767 949 1280 1253 957 730 482 368 206 118 66 1 0 0 5 19 14
1 0 11 10 8 14 5 10 19 2 1 5 6 3 7 0 0 0 0 7 8 6 22 1 2 291 393 706 1000 1283 1101 872 722 515 295 167 80 5 0 0 2 16 24
1 0 12 12 4 6 26 9 18 1 0 4 1 1 4 0 0 0 0 7 1 7 15 18 1 283 278 532 763 1012 1125 1182 862 616 350 179 63 4 1 0 0 11 21
0 0 10 11 6 16 33 13 0 1 2 12 11 11 7 0 0 0 6 12 2 12 18 5 0 262 284 407 680 630 831 951 896 645 360 152 46 12 2 2 1 2 17
0 10 21 11 25 32 36 14 12 8 14 4 19 22 17 17 6 0 1 4 5 9 14 16 21 127 317 255 414 427 315 480 588 604 393 200 72 25 6 3 2 0 5
5 30 20 18 26 30 35 34 39 26 32 18 12 26 12 14 40 6 0 0 0 1 19 8 45 16 315 253 323 444 43 109 310 404 372 273 129 52 13 4 3 1 0
8 31 15 24 20 26 35 37 31 32 32 28 12 8 12 12 25 29 8 2 0 0 31 14 20 24 5 259 317 310 0 0 55 216 249 215 123 53 20 5 4 2 1
10 19 11 12 18 38 30 33 35 44 34 27 18 16 11 22 13 29 19 7 4 2 3 4 2 52 14 41 314 177 0 0 0 31 94 79 34 20 8 2 3 3 2
12 19 6 12 22 30 25 27 36 34 33 28 15 15 15 12 22 29 22 9 8 5 2 15 2 0 0 19 302 17 0 0 0 0 0 1 0 0 0 0 1 2 0
9 10 7 17 26 21 16 15 34 20 22 16 16 15 16 12 21 22 25 11 6 7 16 4 4 1 0 126 223 0 0 0 0 0 0 0 0 0 0 0 0 0 0
10 8 7 13 24 12 5 6 19 13 16 16 10 10 7 7 12 14 16 14 10 5 5 4 1 0 1 9 1 23 10 1 1 0 0 0 0 0 0 0 0 0 0
6 1 7 17 20 13 2 3 12 13 19 14 13 10 5 5 5 7 16 9 9 8 5 7 5 2 1 6 0 7 35 0 1 1 1 0 0 0 0 0 0 0 0
3 0 10 20 16 11 4 1 10 10 13 12 4 13 7 4 4 4 10 8 5 7 6 3 2 1 1 2 1 0 1 1 0 1 1 1 1 1 0 0 0 0 0
0 0 2 18 19 13 4 6 16 11 10 10 8 15 8 6 3 3 9 6 4 7 9 3 2 2 1 4 1 0 2 25 1 1 1 1 1 1 1 0 0 0 0
0 0 0 4 13 8 6 4 15 15 8 11 5 17 11 5 4 4 12 6 5 7 3 3 6 6 5 3 4 1 0 0 37 0 0 1 1 1 1 1 1 0 0
3 0 0 3 1 0 2 2 15 9 9 10 6 12 11 6 6 3 13 6 4 3 2 5 5 6 7 6 6 2 0 1 47 1 0 0 0 1 1 1 1 0 0
2 2 0 0 0 0 0 2 12 8 11 12 6 10 9 10 10 15 18 6 5 3 4 3 4 4 6 3 3 4 1 1 0 14 0 0 0 0 0 1 0 1 0
0 0 0 1 0 0 0 0 8 8 14 12 6 6 7 3 2 5 18 14 10 2 4 2 5 4 6 4 4 4 2 2 1 1 0 0 1 0 0 0 0 1 1
0 0 0 0 0 0 0 0 1 4 5 8 0 4 9 6 2 2 4 3 4 8 0 5 7 7 6 4 6 3 2 3 2 3 3 1 1 0 1 0 1 1 1
0 0 0 0 0 0 0 0 0 7 4 4 5 0 5 2 3 2 0 0 4 10 5 6 5 4 3 3 4 3 2 1 1 2 2 0 3 5 2 0 1 1 1
0 0 0 0 0 0 2 0 0 0 0 0 5 0 0 0 10 6 2 1 0 3 5 4 3 3 1 1 1 0 0 0 0 1 1 1 0 1 0 0 0 1 1
0 0 0 0 0 0 0 5 0 0 0 0 0 0 3 1 5 4 0 1 0 3 3 1 0 0 1 1 0 2 1 1 1 0 1 1 0 0 1 1 0 0 0
CIN
0 -3 0 -3 -3 -11 0 0 0 -1 -1 -1 0 0 0 0 0 0 0 0 0 0 -20 0 0 0 0 0 0 0 -1 0 -6 -29 -72 -164 -291 0 0 -1 -2 -1 -3
-6 0 -5 -5 -9 0 0 0 -3 -4 -2 -2 0 0 0 0 0 0 0 -1 0 0 -17 0 0 0 0 0 0 0 -2 0 -4 -29 -85 -176 -261 -1 -1 -2 -2 -2 -2
-12 -5 -6 -3 -2 0 0 -4 -2 -1 -2 -1 0 0 0 0 0 0 0 0 0 0 0 -3 0 0 0 0 0 0 0 0 -2 -19 -77 -161 -242 0 0 -2 -3 -2 0
-21 0 0 -2 -3 0 -2 -3 -3 -3 0 -5 0 -1 0 0 0 0 0 0 -2 0 0 0 -16 -2 -1 0 0 0 0 0 0 -9 -66 -145 -206 0 0 0 -3 -2 0
-21 0 -1 -10 -2 -2 -2 -3 -1 -1 0 -1 0 -1 0 0 0 0 0 0 -6 -1 -29 0 -13 -7 -6 -1 0 0 -1 0 0 -1 -38 -110 -181 -58 0 0 -1 -2 -1
-8 0 -6 -3 -1 -1 -1 -2 -2 -2 -4 -1 0 0 0 -1 0 0 0 -3 -7 0 0 0 0 -7 -33 -5 -1 0 0 -2 0 0 -9 -56 -148 -245 0 0 0 -2 -2
-3 0 0 -1 -8 0 -1 -3 -2 -1 0 -1 0 0 -1 0 0 0 0 -7 -7 0 0 -77 0 -2 -18 -21 -1 0 0 0 0 0 -2 -35 -136 -289 0 0 0 0 -2
-3 0 -4 -3 -3 0 0 -2 -1 0 0 0 0 0 0 0 0 0 -1 0 -2 0 0 -1 -2 -1 -7 -15 -1 -9 -1 0 -2 0 -1 -33 -129 -238 -47 0 0 0 -1
0 -7 -1 -6 0 -1 -1 -1 -1 -1 -1 0 0 0 0 0 0 0 0 -1 0 0 0 -53 -3 -1 -5 -19 -13 -12 -43 -3 -1 -4 -1 -28 -76 -181 -308 0 0 0 0
-6 0 -1 -1 0 -1 -1 0 0 -1 0 0 0 0 0 0 0 0 -1 0 0 0 0 -40 -29 -12 -6 -11 -14 -5 -120 -63 -16 -3 -5 -13 -44 -120 -260 -231 0 0 0
-5 0 -4 0 -1 -1 0 0 0 -1 0 0 0 0 0 0 0 0 0 0 0 0 -19 -33 -10 -11 0 -7 -9 -17 0 0 -83 -21 -18 -20 -36 -101 -206 -229 0 0 0
-3 0 -2 -1 -1 0 -1 -1 -1 -1 0 0 0 0 0 0 0 0 0 0 0 0 0 0 -7 -27 -1 0 -7 -42 0 0 0 -86 -67 -46 -91 -148 -210 0 0 0 0
-1 0 -5 -1 0 -1 -1 -1 -1 -1 -1 -1 0 0 0 0 0 0 0 0 0 0 0 -18 0 0 0 -4 -2 -111 0 0 0 0 0 -71 -26 0 0 0 0 0 0
-3 -1 -4 0 0 0 -1 -1 -1 -1 -1 -1 0 0 0 0 0 0 0 0 0 0 0 0 0 0 0 -1 -5 -12 0 0 0 0 0 0 0 0 0 0 0 0 0
-1 -1 -6 0 0 -1 -1 -1 -1 -4 -1 0 0 -1 0 0 0 0 0 0 0 0 0 0 0 0 0 0 0 -78 -147 0 0 0 0 0 0 0 0 0 0 0 0
-1 -9 -3 0 0 -1 -1 -1 0 -2 0 -1 -1 0 0 0 0 0 0 0 0 0 0 0 0 0 0 0 0 -11 -64 0 0 0 0 0 0 0 0 0 0 0 0
-2 -4 -2 0 0 0 0 -1 0 0 0 -1 0 0 0 0 0 0 0 0 0 0 0 0 0 0 0 0 0 0 0 0 0 0 0 0 0 0 0 0 0 0 0
0 0 -1 0 0 0 0 -1 0 0 0 0 0 0 0 0 0 0 0 0 0 0 0 0 0 0 0 0 0 0 0 -29 0 0 0 0 0 0 0 0 0 0 0
-1 0 -2 -1 0 0 -1 -1 0 0 0 0 0 0 0 0 0 0 0 0 0 0 0 0 0 0 0 0 0 0 0 0 -18 0 0 0 0 0 0 0 0 0 0
-7 -5 0 -4 -1 0 -1 -2 0 0 0 0 0 0 0 0 0 0 0 0 0 0 0 0 0 0 0 0 0 0 0 0 -6 0 0 0 0 0 0 0 0 0 0
-6 -7 -2 -4 0 0 0 0 -1 -1 -1 0 0 0 0 0 0 0 0 0 0 0 0 0 0 0 0 0 0 0 0 0 0 -50 0 0 0 0 0 0 0 0 0
0 0 0 -4 0 0 0 0 -3 -3 0 0 0 0 0 0 0 0 0 0 0 0 0 0 0 0 0 0 0 0 0 0 0 -1 0 0 0 0 0 0 0 0 0
0 0 0 0 0 0 0 0 -13 -5 -2 -1 -1 -1 0 0 0 0 0 0 0 0 0 0 0 0 0 0 0 0 0 0 0 0 0 0 0 0 0 0 0 0 0
0 0 0 0 0 0 0 0 0 -2 -5 -3 -2 -1 -2 -1 0 0 -1 0 0 0 0 0 0 0 0 0 0 0 0 0 0 0 0 -17 0 -36 0 0 0 0 0
0 0 0 0 0 0 0 0 0 0 -1 -1 -1 -3 0 0 0 0 0 -1 -1 0 0 0 0 0 0 0 0 -1 0 0 0 0 0 0 0 0 0 -9 0 0 0
0 0 0 0 0 0 0 0 0 0 -2 0 0 0 -1 -1 0 0 -1 -1 0 0 0 0 0 -1 0 0 0 0 0 0 0 0 0 0 0 0 0 0 0 0 0
Wind_Speed
9 10 10 10 9 11 11 11 11 12 12 14 15 15 16 15 13 5 6 21 26 22 20 31 32 31 30 29 28 27 27 26 26 25 24 23 21 20 19 17 17 18 18
8 10 10 11 12 11 11 11 11 10 10 11 16 16 16 14 14 5 6 9 23 24 22 27 32 32 31 31 29 28 28 27 26 25 25 22 20 20 20 18 16 17 18
9 12 11 12 11 12 15 11 12 10 10 10 16 16 15 15 15 15 10 8 11 20 17 19 31 32 31 31 30 29 28 27 26 25 24 22 21 21 20 20 16 17 20
13 11 11 11 13 12 11 12 10 11 11 11 12 12 13 14 18 15 13 13 9 7 9 24 27 32 31 31 31 31 29 28 27 25 25 23 21 21 20 20 18 19 21
12 10 9 11 14 11 11 11 11 11 12 12 12 13 14 13 15 12 14 15 9 9 8 14 18 28 31 31 32 32 31 29 28 26 25 24 22 21 21 20 20 17 18
11 10 9 12 13 11 11 12 13 10 12 12 14 16 15 14 12 12 13 10 7 9 8 13 9 16 28 31 32 32 32 32 29 27 26 25 23 21 21 21 20 19 18
12 11 10 12 13 12 13 13 11 13 11 11 13 15 12 13 5 8 7 8 8 10 12 10 9 8 14 30 31 31 32 32 30 28 27 26 24 22 21 21 21 20 19
12 11 11 12 13 12 13 13 13 10 10 10 9 10 10 6 9 8 6 7 8 6 10 10 12 15 17 16 22 31 31 32 31 29 27 26 24 23 22 21 21 21 19
14 12 12 12 12 11 10 12 11 14 9 10 11 5 6 4 13 4 6 7 10 6 7 13 16 14 17 17 20 23 28 29 31 29 28 27 25 24 23 22 21 21 21
13 11 13 13 12 10 12 11 10 11 11 9 8 6 8 9 4 8 5 7 13 8 6 8 12 8 15 15 21 24 22 23 27 29 29 28 27 25 24 23 21 21 21
13 12 14 13 12 10 12 13 12 11 9 6 8 8 7 7 5 4 6 12 8 7 4 5 5 10 8 16 15 19 25 23 24 27 28 28 27 26 24 23 22 21 21
9 12 14 13 12 12 13 12 12 12 10 10 9 9 7 6 7 5 4 11 9 4 6 5 6 4 7 10 18 22 27 25 25 25 26 27 27 26 25 23 22 22 22
9 11 13 13 11 14 14 13 11 12 12 10 11 9 8 8 7 5 4 6 4 5 4 5 9 4 9 19 19 22 28 25 23 24 24 25 24 25 25 25 23 22 21
9 12 13 13 15 15 14 13 9 10 12 10 13 12 9 9 8 6 6 7 6 4 5 5 8 9 12 10 18 22 20 27 25 23 23 23 23 22 22 23 23 22 21
9 12 13 14 14 15 15 15 10 12 11 12 11 12 11 10 9 8 7 6 5 5 4 7 7 7 11 9 8 15 17 25 25 23 22 23 22 21 21 20 21 21 20
10 12 13 14 14 15 15 14 11 12 13 11 10 13 13 11 11 9 8 7 5 4 4 6 5 7 12 8 8 4 15 21 22 23 23 23 23 22 21 20 19 19 19
10 12 13 14 14 15 15 13 13 14 14 14 14 13 15 14 10 10 8 7 6 5 5 5 2 8 6 10 8 5 6 12 10 17 24 23 22 21 20 19 19 18 19
9 11 13 13 13 15 15 14 14 14 15 15 15 13 16 12 14 13 9 11 8 8 5 6 3 5 6 10 5 5 5 4 11 12 16 23 22 22 21 20 19 18 18
8 8 10 13 13 15 14 14 14 14 14 14 15 13 16 16 14 12 10 10 9 7 8 5 6 5 2 10 7 5 4 1 6 17 16 16 23 23 22 20 19 19 19
8 7 7 11 13 13 15 15 13 13 13 14 15 14 16 16 16 14 11 12 11 9 9 6 5 6 7 6 4 6 4 3 5 9 14 15 17 22 23 22 21 20 19
8 9 10 9 13 13 13 16 11 12 13 14 16 15 16 23 27 18 6 12 12 9 8 8 8 6 6 5 9 6 4 5 5 9 8 8 9 9 10 16 18 21 19
8 9 11 10 13 12 26 26 14 11 13 14 16 15 15 21 21 22 17 16 16 12 12 9 8 8 10 8 7 6 5 5 3 5 8 8 10 9 9 9 13 17 19
7 9 10 13 13 15 28 29 18 10 11 13 15 15 14 14 19 15 17 18 16 21 14 10 10 8 7 10 8 5 4 2 2 8 8 7 8 9 7 8 17 17 18
7 7 9 11 11 13 26 28 21 11 11 14 13 16 16 17 20 17 14 14 15 12 14 9 10 10 10 11 9 6 5 6 3 5 12 4 7 6 8 8 17 18 19
6 7 9 10 12 13 25 26 19 13 12 13 13 14 15 17 26 25 15 15 14 14 13 19 18 19 19 22 18 6 11 7 4 5 13 5 5 1 4 7 8 21 21
8 6 9 9 14 13 24 24 20 10 10 10 11 13 22 19 25 26 16 15 15 14 12 13 13 16 18 17 21 15 10 10 5 5 9 8 7 6 2 1 3 6 6
Wind_Direction
344 348 330 327 322 5 354 340 333 328 321 315 312 311 305 300 290 281 289 293 295 283 242 193 186 179 174 170 166 164 161 161 157 154 154 152 152 150 147 146 141 140 140
347 338 330 331 9 349 341 330 320 316 317 321 310 305 297 287 285 263 279 287 289 290 294 194 191 180 175 171 168 166 165 164 162 157 154 155 153 150 150 148 146 146 142
347 352 351 358 355 341 330 325 321 327 319 322 318 314 320 333 318 317 302 276 276 294 253 252 201 183 175 172 169 168 166 166 164 159 155 155 154 153 153 148 150 149 151
27 7 353 350 339 330 330 325 336 329 328 325 314 318 314 306 294 291 288 284 272 287 265 283 219 181 175 173 171 170 168 167 165 162 158 155 156 154 153 152 154 156 157
20 6 358 341 331 331 328 332 335 327 330 324 318 309 299 291 284 280 273 268 249 246 257 272 256 182 177 175 173 173 172 168 167 165 160 157 158 157 155 157 159 155 153
12 8 355 346 340 336 335 337 334 334 328 326 316 310 299 284 269 268 271 255 247 254 251 232 320 183 180 176 176 175 174 169 170 168 163 160 160 160 159 160 161 158 156
19 12 3 352 338 335 335 344 331 339 330 328 318 320 303 282 211 315 267 243 221 240 227 239 251 186 186 174 176 177 175 172 171 170 166 163 163 162 163 163 163 162 160
23 12 359 346 336 334 342 337 343 332 321 326 321 309 333 334 346 306 6 330 232 232 227 206 215 216 189 177 176 178 175 173 172 171 168 166 166 165 166 165 166 163 160
19 5 359 345 337 338 333 335 330 328 318 329 333 319 334 340 318 330 354 359 351 257 228 216 216 239 194 181 172 179 174 174 173 172 170 168 167 168 168 168 168 166 163
7 4 359 346 337 335 332 330 329 325 325 331 332 335 326 319 342 321 331 345 335 316 200 194 219 273 186 180 176 179 172 172 173 173 172 171 169 169 170 170 170 168 167
1 7 358 346 339 338 333 333 332 334 337 329 339 333 330 334 332 303 327 331 334 342 228 168 126 210 302 183 178 180 169 168 171 173 172 172 171 170 170 171 171 170 169
358 8 358 346 340 340 341 337 337 337 345 350 348 349 347 343 341 353 314 323 314 279 305 153 134 140 223 243 181 175 170 169 168 170 171 174 172 172 170 171 173 173 172
2 4 354 343 346 345 345 344 344 352 352 1 355 353 346 346 340 340 326 331 318 310 306 70 67 25 313 228 195 171 167 164 166 168 168 170 172 173 171 171 175 176 175
3 10 348 344 350 352 353 350 352 0 358 4 2 1 349 348 350 358 351 340 334 319 19 332 54 23 344 211 159 168 172 165 163 164 166 167 170 171 171 172 175 176 177
8 15 348 347 356 358 356 357 0 2 4 8 6 1 1 354 354 357 2 1 343 329 346 1 28 357 326 321 97 171 173 167 164 164 163 165 168 169 169 171 173 174 177
16 19 350 352 1 2 359 1 358 3 8 10 4 10 6 359 356 356 2 4 344 317 323 4 18 339 323 343 60 133 167 167 168 165 164 166 167 169 170 170 171 173 175
26 19 354 358 7 3 0 0 0 7 13 12 5 14 6 0 356 359 0 354 354 331 332 22 351 312 325 4 32 54 77 173 171 172 168 167 168 167 169 170 172 175 174
37 27 5 3 10 7 359 1 4 11 15 10 5 11 10 1 3 358 360 3 351 349 330 4 291 347 349 344 13 92 180 144 172 177 182 169 171 169 170 171 173 176 176
49 39 20 9 10 7 4 0 1 13 13 13 9 11 12 1 3 355 6 358 3 350 7 344 5 357 314 10 6 11 10 202 174 163 174 189 176 174 173 172 173 177 178
21 42 35 16 14 15 6 360 2 12 13 16 14 15 15 6 1 352 20 6 5 6 3 15 19 20 8 359 349 25 357 15 206 158 182 183 188 182 176 177 178 182 185
20 24 18 39 26 18 5 4 7 11 16 21 18 16 19 13 6 11 23 23 16 18 11 19 23 28 9 356 19 337 334 333 312 191 165 177 178 184 193 188 187 182 187
21 27 31 17 37 11 4 7 5 19 24 23 20 15 20 13 5 16 25 24 37 28 28 23 19 19 7 360 349 349 12 4 18 178 171 173 177 189 184 189 190 191 190
19 34 37 17 48 19 9 4 3 36 31 27 28 15 19 16 11 15 21 24 35 38 27 28 27 15 352 353 325 342 6 345 274 359 318 153 172 184 185 181 179 185 191
26 37 32 37 42 28 18 9 0 23 39 31 33 21 18 19 18 22 20 25 27 33 29 23 27 11 13 358 355 329 315 280 168 48 353 118 158 178 174 191 180 184 188
25 29 41 39 34 41 23 17 10 12 26 26 23 21 21 22 22 23 30 30 32 27 19 25 30 29 26 17 14 10 23 26 34 28 14 350 4 64 159 184 180 190 191
26 28 40 32 49 36 25 20 18 15 22 24 18 20 21 29 26 28 30 24 30 16 13 19 23 29 29 23 25 32 24 40 23 9 5 8 346 2 29 335 144 165 185